| time (UTC) | temp C | wind direction | speed KPH | gust KPH | rain 1hr cm | rain 24hr cm | rain mn cm | humidity % | barometer mb |
| 20260505041619 | 25 | 225 | 1.6 | 4.8 | 0.00 | 0.00 | 0.00 | 2 | 1014.0 |
| 20260505040620 | 25 | 234 | 1.6 | 8.0 | 0.00 | 0.00 | 0.00 | 2 | 1015.0 |
| 20260505035620 | 24 | 198 | 4.8 | 9.7 | 0.00 | 0.00 | 0.00 | 2 | 1015.0 |
| 20260505034618 | 25 | 225 | 9.7 | 8.0 | 0.00 | 0.00 | 0.00 | 2 | 1015.0 |
| 20260505033618 | 24 | 191 | 4.8 | 11.3 | 0.00 | 0.00 | 0.00 | 2 | 1015.0 |
| 20260505032619 | 24 | 188 | 8.0 | 11.3 | 0.00 | 0.00 | 0.00 | 2 | 1015.0 |
| 20260505031619 | 24 | 203 | 9.7 | 12.9 | 0.00 | 0.00 | 0.00 | 2 | 1015.0 |
| 20260505030619 | 25 | 225 | 8.0 | 11.3 | 0.00 | 0.00 | 0.00 | 2 | 1015.0 |
| 20260505025620 | 25 | 180 | 4.8 | 9.7 | 0.00 | 0.00 | 0.00 | 2 | 1015.0 |
| 20260505024618 | 23 | 225 | 8.0 | 4.8 | 0.00 | 0.00 | 0.00 | 2 | 1015.0 |
| 20260505023619 | 23 | 212 | 9.7 | 9.7 | 0.00 | 0.00 | 0.00 | 2 | 1015.0 |
| 20260505022619 | 23 | 180 | 8.0 | 9.7 | 0.00 | 0.00 | 0.00 | 2 | 1015.0 |
| 20260505021620 | 23 | 208 | 4.8 | 9.7 | 0.00 | 0.00 | 0.00 | 2 | 1015.0 |
| 20260505020619 | 22 | 193 | 11.3 | 11.3 | 0.00 | 0.00 | 0.00 | 2 | 1015.0 |
| 20260505015619 | 23 | 180 | 0.0 | 0.0 | 0.00 | 0.00 | 0.00 | 15 | 1015.0 |
| 20260505014619 | 23 | 237 | 3.2 | 4.8 | 0.00 | 0.00 | 0.00 | 14 | 1015.0 |
| 20260505013619 | 24 | 184 | 3.2 | 11.3 | 0.00 | 0.00 | 0.00 | 22 | 1015.0 |
| 20260505012619 | 23 | 180 | 1.6 | 9.7 | 0.00 | 0.00 | 0.00 | 25 | 1015.0 |
| 20260505011619 | 22 | 195 | 8.0 | 8.0 | 0.00 | 0.00 | 0.00 | 26 | 1015.0 |
| 20260505010619 | 22 | 180 | 3.2 | 8.0 | 0.00 | 0.00 | 0.00 | 27 | 1015.0 |
| 20260505005619 | 21 | 329 | 1.6 | 1.6 | 0.00 | 0.00 | 0.00 | 28 | 1015.0 |
| 20260505004620 | 21 | 213 | 3.2 | 3.2 | 0.00 | 0.00 | 0.00 | 31 | 1015.0 |
| 20260505003619 | 20 | 225 | 1.6 | 0.0 | 0.00 | 0.00 | 0.00 | 30 | 1015.0 |
| 20260505002619 | 21 | 80 | 0.0 | 9.7 | 0.00 | 0.00 | 0.00 | 32 | 1015.0 |
| 20260505001620 | 20 | 180 | 1.6 | 9.7 | 0.00 | 0.00 | 0.00 | 33 | 1015.0 |
| 20260505000618 | 20 | 187 | 0.0 | 9.7 | 0.00 | 0.00 | 0.00 | 34 | 1015.0 |
| 20260504235619 | 20 | 180 | 0.0 | 1.6 | 0.00 | 0.00 | 0.00 | 36 | 1015.0 |
| 20260504234619 | 18 | 180 | 1.6 | 1.6 | 0.00 | 0.00 | 0.00 | 37 | 1015.0 |
| 20260504233619 | 17 | 219 | 3.2 | 4.8 | 0.00 | 0.00 | 0.00 | 37 | 1014.0 |
| 20260504232619 | 17 | 0 | 0.0 | 0.0 | 0.00 | 0.00 | 0.00 | 41 | 1014.0 |
| 20260504231618 | 16 | 262 | 0.0 | 3.2 | 0.00 | 0.00 | 0.00 | 43 | 1014.0 |
| 20260504230618 | 15 | 204 | 1.6 | 3.2 | 0.00 | 0.00 | 0.00 | 46 | 1014.0 |
| 20260504225619 | 15 | 180 | 3.2 | 4.8 | 0.00 | 0.00 | 0.00 | 48 | 1014.0 |
| 20260504224619 | 14 | 180 | 1.6 | 3.2 | 0.00 | 0.00 | 0.00 | 51 | 1016.0 |
| 20260504223619 | 13 | 349 | 0.0 | 1.6 | 0.00 | 0.00 | 0.00 | 56 | 1015.0 |
| 20260504222619 | 12 | 180 | 0.0 | 1.6 | 0.00 | 0.00 | 0.00 | 61 | 1015.0 |
| 20260504221620 | 12 | 211 | 0.0 | 1.6 | 0.00 | 0.00 | 0.00 | 62 | 1015.0 |
| 20260504220619 | 11 | 192 | 1.6 | 3.2 | 0.00 | 0.00 | 0.00 | 62 | 1015.0 |
| 20260504215619 | 11 | 180 | 0.0 | 0.0 | 0.00 | 0.00 | 0.00 | 63 | 1015.0 |
| 20260504214618 | 11 | 180 | 0.0 | 0.0 | 0.00 | 0.00 | 0.00 | 65 | 1015.0 |
| 20260504213619 | 10 | 195 | 0.0 | 3.2 | 0.00 | 0.00 | 0.00 | 66 | 1015.0 |
| 20260504212620 | 10 | 180 | 0.0 | 0.0 | 0.00 | 0.00 | 0.00 | 66 | 1015.0 |
| 20260504211620 | 10 | 180 | 0.0 | 0.0 | 0.00 | 0.00 | 0.00 | 65 | 1014.0 |
| 20260504210619 | 9 | 180 | 0.0 | 0.0 | 0.00 | 0.00 | 0.00 | 64 | 1014.0 |
| 20260504205619 | 9 | 180 | 0.0 | 0.0 | 0.00 | 0.00 | 0.00 | 63 | 1014.0 |
| 20260504204619 | 9 | 180 | 0.0 | 0.0 | 0.00 | 0.00 | 0.00 | 63 | 1014.0 |
| 20260504203620 | 10 | 180 | 0.0 | 0.0 | 0.00 | 0.00 | 0.00 | 64 | 1014.0 |
| 20260504202620 | 10 | 180 | 0.0 | 0.0 | 0.00 | 0.00 | 0.00 | 64 | 1014.0 |
| 20260504201620 | 10 | 180 | 0.0 | 0.0 | 0.00 | 0.00 | 0.00 | 65 | 1014.0 |
| 20260504200620 | 10 | 180 | 0.0 | 0.0 | 0.00 | 0.00 | 0.00 | 65 | 1014.0 |
| 20260504195619 | 10 | 180 | 0.0 | 0.0 | 0.00 | 0.00 | 0.00 | 64 | 1014.0 |
| 20260504194620 | 10 | 180 | 0.0 | 0.0 | 0.00 | 0.00 | 0.00 | 62 | 1014.0 |
| 20260504193620 | 10 | 180 | 0.0 | 0.0 | 0.00 | 0.00 | 0.00 | 62 | 1014.0 |
| 20260504192618 | 10 | 180 | 0.0 | 0.0 | 0.00 | 0.00 | 0.00 | 62 | 1014.0 |
| 20260504191620 | 10 | 180 | 0.0 | 0.0 | 0.00 | 0.00 | 0.00 | 63 | 1013.0 |
| 20260504190620 | 10 | 180 | 0.0 | 0.0 | 0.00 | 0.00 | 0.00 | 64 | 1013.0 |
| 20260504185619 | 10 | 180 | 1.6 | 3.2 | 0.00 | 0.00 | 0.00 | 65 | 1013.0 |
| 20260504184619 | 10 | 180 | 0.0 | 0.0 | 0.00 | 0.00 | 0.00 | 63 | 1013.0 |
| 20260504183619 | 10 | 0 | 0.0 | 0.0 | 0.00 | 0.00 | 0.00 | 59 | 1013.0 |
| 20260504182620 | 10 | 0 | 0.0 | 0.0 | 0.00 | 0.00 | 0.00 | 59 | 1013.0 |
| 20260504181620 | 10 | 0 | 0.0 | 0.0 | 0.00 | 0.00 | 0.00 | 58 | 1013.0 |
| 20260504180620 | 10 | 0 | 0.0 | 0.0 | 0.00 | 0.00 | 0.00 | 59 | 1012.0 |
| 20260504175618 | 10 | 0 | 0.0 | 0.0 | 0.00 | 0.00 | 0.00 | 57 | 1012.0 |
| 20260504174619 | 10 | 0 | 0.0 | 0.0 | 0.00 | 0.00 | 0.00 | 57 | 1013.0 |
| 20260504173619 | 11 | 0 | 0.0 | 0.0 | 0.00 | 0.00 | 0.00 | 57 | 1012.0 |
| 20260504172619 | 11 | 0 | 0.0 | 0.0 | 0.00 | 0.00 | 0.00 | 55 | 1012.0 |
| 20260504171620 | 11 | 0 | 0.0 | 0.0 | 0.00 | 0.00 | 0.00 | 55 | 1012.0 |
| 20260504170620 | 11 | 180 | 0.0 | 0.0 | 0.00 | 0.00 | 0.00 | 54 | 1012.0 |
| 20260504150619 | 12 | 180 | 0.0 | 0.0 | 0.00 | 0.00 | 0.00 | 52 | 1013.0 |
| 20260504140620 | 12 | 0 | 0.0 | 0.0 | 0.00 | 0.00 | 0.00 | 48 | 1013.0 |
| 20260504130619 | 13 | 338 | 0.0 | 0.0 | 0.00 | 0.00 | 0.00 | 44 | 1013.0 |
| 20260504110620 | 15 | 180 | 0.0 | 0.0 | 0.00 | 0.00 | 0.00 | 37 | 1011.0 |
| 20260504081619 | 18 | 330 | 0.0 | 1.6 | 0.00 | 0.00 | 0.00 | 24 | 1010.0 |
| 20260504080619 | 19 | 334 | 4.8 | 3.2 | 0.00 | 0.10 | 0.00 | 12 | 1010.0 |
| 20260504050620 | 22 | 325 | 4.8 | 12.9 | 0.00 | 0.84 | 0.00 | 3 | 1009.0 |